Location: Espelette
(43.3402°N, 1.4474°W)
Time: 19:42:18
(UTC+00:00)

Cosmos 1125 Rocket - Pass Details

Date: 19 May 2025
Orbit: 753 x 776 km, 74.0° (Epoch: 21 June)

Event Time Altitude Azimuth Distance (km) Brightness Sun altitude
Rises 21:03:23 0° 342° (NNW) 3,266 8.0 -14.5°
Reaches altitude 10° 21:05:48 10° 345° (NNW) 2,334 7.0 -14.8°
Maximum altitude 21:11:05 66° 68° (ENE) 848 3.6 -15.5°
Enters shadow 21:14:05 26° 144° (SE) 1,503 4.4 -15.9°
